Regional Weather Roundup
Issued by NWS Green Bay, WI

Home | Current Version | Previous Version | Graphics & Text | Print | Product List | Glossary Off
Versions: 1 2 3 4 5 6 7 8 9 10 11 12 13 14 15 16 17 18 19 20 21 22 23 24 25 26 27 28 29 30 31 32 33 34 35 36 37 38 39 40 41 42 43 44 45 46 47 48 49 50

000
ASUS43 KGRB 172311
RWRGRB

NORTH-CENTRAL AND NORTHEAST WISCONSIN REGIONAL WEATHER ROUNDUP
NATIONAL WEATHER SERVICE GREEN BAY WI
600 PM CDT THU AUG 17 2017

WIZ005-009-010>012-018-019-180000-
NORTH CENTRAL WISCONSIN

CITY           SKY/WX    TMP DP  RH WIND       PRES   REMARKS
IRONWOOD       LGT RAIN  59  58  96 NW10G17   29.65R FOG
MANITOWISH WTR CLOUDY    62  62 100 NW17G23   29.62R
ARBOR VITAE    LGT RAIN  67  64  91 NW14G23   29.60R
EAGLE RIVER    CLOUDY    67  66  96 NW7       29.58R
LAND O LAKES   CLOUDY    69  65  88 NW3       29.59S
RHINELANDER    CLOUDY    69  66  90 NW7       29.59R
PHILLIPS       CLOUDY    63  63 100 NW9       29.63R
ANTIGO         CLOUDY    70  68  92 W15G21    29.57R FOG
TOMAHAWK         N/A     66  64  91 NW9G20    29.60R FOG
MERRILL        CLOUDY    70  68  94 W12G18    29.59R
$$

WIZ013-073-180000-
NORTHEAST WISCONSIN

CITY           SKY/WX    TMP DP  RH WIND       PRES   REMARKS
IRON MOUNTAIN  LGT RAIN  69  65  86 S3        29.53S
MARINETTE      CLOUDY    73  67  81 SW7       29.53F
OCONTO         CLOUDY    73  66  77 W16G29    29.53S
$$

WIZ017-030-035>037-045-180000-
CENTRAL WISCONSIN

CITY           SKY/WX    TMP DP  RH WIND       PRES   REMARKS
MEDFORD        CLOUDY    64  60  88 NW14G22   29.64R
WAUSAU         CLOUDY    70  65  84 W20G31    29.58R
MOSINEE        LGT RAIN  66  66 100 W16G23    29.62R FOG
MARSHFIELD     CLOUDY    65  62  90 W16G22    29.65R
WISC RAPIDS    CLOUDY    67  64  90 W15G25    29.66R
STEVENS POINT  CLOUDY    66  65  97 W15G24    29.63R
WAUPACA        PTSUNNY   73  69  88 SW15      29.60R
SHAWANO        CLOUDY    75  66  73 SW13      29.55R
CLINTONVILLE   LGT RAIN  72  64  78 SW10G18   29.57R
WAUTOMA        CLOUDY    70  66  88 W20       29.63R FOG
$$

WIZ038-039-048-051-180000-
FOX VALLEY

CITY           SKY/WX    TMP DP  RH WIND       PRES   REMARKS
NWS GREEN BAY  LGT RAIN  74  67  78 SW14G25   29.56S
APPLETON       PTSUNNY   72  68  88 SW10      29.58S
OSHKOSH        PTSUNNY   75  65  70 SW13G21   29.60R
FOND DU LAC    PTSUNNY   75  64  68 SW14G23   29.62S
$$

WIZ022-050-052-180000-
EAST CENTRAL WISCONSIN

CITY           SKY/WX    TMP DP  RH WIND       PRES   REMARKS
EPHRAIM        CLOUDY    72  67  83 S6        29.54F
WASHINGTON ISL CLOUDY    70  68  94 S8        29.54F
STURGEON BAY   PTSUNNY   74  67  78 SW10      29.55F
MANITOWOC      PTSUNNY   76  65  68 SW16G22   29.59F
SHEBOYGAN      PTSUNNY   75  68  78 SW10G23   29.61F
$$

LMZ563-521-522-541>543-180000-
LAKESHORE

STATION/POSITION TIME  TEMP    WIND        PRES    VSBY  WAVE
                       AIR SEA DIR/SP/G                  HT/PER
                 (UTC) (F)     (DEG/KT/KT) (MB)    (MI)  (FT/S)
SHEBOYGAN LKSHOR 2300   74     230/ 16/ 19 1001.9F
KEWAUNEE LKSHORE 2242   76     240/  7/ 12 1000.6F
NORTHPORT PIER   2240   71     150/  6/  8 1000.7S
N MID LAKE BUOY  2250   70 68  180/ 17/ 21 1000.8F         5/ 6
S GREEN BAY BUOY 2300   73 72  210/ 12/ 16 1000.1
SISTER BAY LKSHO 2303   74     190/  9/ 11   N/A
MENOMINEE LKSHOR 2242   74     200/ 11/ 14  999.9F
$$




USA.gov is the U.S. government's official web portal to all federal, state and local government web resources and services.